Regional Weather Roundup
Issued by NWS

Home | Current Version | Previous Version | Text Only | Print | Product List | Glossary On
Versions: 1 2 3 4 5 6 7 8 9 10 11 12 13 14 15 16 17 18 19 20 21 22 23 24 25 26 27 28 29 30 31 32 33 34 35 36 37 38 39 40 41 42 43 44 45 46 47 48 49 50
980
ASUS44 KJAN 180810
RWRMS

MISSISSIPPI HOURLY WEATHER ROUNDUP
NATIONAL WEATHER SERVICE JACKSON MS
300 AM CDT THU SEP 18 2014

NOTE: "FAIR: INDICATES FEW OR NO CLOUDS BELOW 12,000 FEET WITH NO
SIGNIFICANT WEATHER AND/OR OBSTRUCTIONS TO VISIBILITY.

MSZ001>002-007>008-010>013-018>021-025>028-034>036-180900-
NORTHWEST MISSISSIPPI

CITY           SKY/WX    TMP DP  RH WIND       PRES   REMARKS
CLARKSDALE       N/A     68  68 100 CALM      29.91F
CLEVELAND      FAIR      74  70  87 SE8       29.90S
GREENWOOD      PTCLDY    73  66  78 VRB3      29.91F
GREENVILLE     MOCLDY    75  68  78 SE6       29.90S
GRENADA        FAIR      70  64  83 SE5       29.93F
OLIVE BRANCH   CLEAR     64  64 100 CALM      29.93F
OXFORD         FAIR      66  64  94 SE3       29.95F
TUNICA         CLOUDY    64  63  94 CALM      29.92F FOG
$$

MSZ003>006-009-014>017-022>024-029>033-037>039-180900-
NORTHEAST MISSISSIPPI

CITY           SKY/WX    TMP DP  RH WIND       PRES   REMARKS
COLUMBUS AFB   MOCLDY    65  65  99 CALM      29.93F
CORINTH          N/A     61  59  94 CALM      29.95R
GOLDN TRIANGLE PTCLDY    66  61  82 CALM      29.94F
STARKVILLE     FAIR      63  63 100 CALM      29.94S
TUPELO         CLOUDY    68  65  90 E3        29.93F
$$

MSZ040-058-180900-
CENTRAL MISSISSIPPI

CITY           SKY/WX    TMP DP  RH WIND       PRES   REMARKS
JACKSON INTL   CLOUDY    73  69  87 CALM      29.92S
JACKSON HAWKNS CLOUDY    77  69  76 CALM      29.93S
MERIDIAN KEY   CLOUDY    70  66  87 CALM      29.93S
MERIDIAN NAS   MOCLDY    68  65  90 NW5       29.93S
RAYMOND        FAIR      72  66  83 CALM      29.92S
VICKSBURG      CLOUDY    71  69  93 CALM      29.90S
$$

MSZ059>079-180900-
SOUTH MISSISSIPPI

CITY           SKY/WX    TMP DP  RH WIND       PRES   REMARKS
BROOKHAVEN     FAIR      72  72 100 CALM      29.93F FOG
COLUMBIA       FAIR      70  70 100 CALM      29.90F FOG
HATTIESBURG    MOCLDY    73  71  93 CALM      29.91F FOG
MCCOMB         MOCLDY    72  70  93 CALM      29.92S
NATCHEZ        MOCLDY    73  70  88 CALM      29.92S
PINE BELT      MOCLDY   N/A N/A N/A CALM      29.91F
$$

MSZ080>082-180900-
COASTAL MISSISSIPPI

CITY           SKY/WX    TMP DP  RH WIND       PRES   REMARKS
BILOXI         MOCLDY    77  73  87 VRB1      29.90F
PASCAGOULA     CLOUDY    72  71  97 CALM      29.90S
GULFPORT       MOCLDY    74  72  93 CALM      29.89F
$$



USA.gov is the U.S. government's official web portal to all federal, state and local government web resources and services.